[[{"header":{"parameterUnit":"m.s-1","parameterCategory":1,"la1":30.2991,"la2":30.254,"lo1":-89.0895,"lo2":-89.0444,"dy":0.0017,"dx":0.0017,"nx":28,"ny":28,"refTime":"2025-11-09T03:00:00:Z","depth":0,"parameterNumber":2,"parameterNumberName":"U-component_of_WINDS"},"data":[0,0,0,0,0,0,0,0,0,0,0,0,0,0,0,0,0,0,0,0,0,0,0,0,0,0,0,0,0,0,0,0,0,0,0,0,0,0,0,0,0,0,0,0,0,0,0,0,0,0,0,0,0,0,0,0,0,0,3.1645,3.1645,0,3.1696,3.1697,3.1697,3.1677,3.1676,3.1674,3.1673,3.1724,3.1726,3.1729,0,0,0,0,0,0,0,0,0,0,0,0,0,3.1528,3.153,3.1645,3.1645,3.1646,3.1696,3.1697,3.1697,3.1677,3.1676,3.1674,3.1673,3.1723,3.1726,3.1729,0,0,0,0,0,0,0,0,0,0,0,0,0,3.1579,3.1531,3.1644,3.1642,3.1642,3.1696,3.1697,3.1698,3.1677,3.1675,3.1674,3.1672,3.1722,3.1726,3.1729,3.1788,0,0,3.1741,3.1742,0,0,0,0,0,0,0,0,3.1576,3.1583,3.1642,3.1642,3.1642,3.1678,3.1674,3.1728,3.1678,3.1664,3.1673,3.1671,3.171,3.1715,3.1728,3.179,3.1793,3.1741,3.1743,3.1745,3.1746,0,0,0,0,0,0,0,3.1573,3.1581,3.1665,3.1642,3.1643,3.1638,3.1643,3.1684,3.1696,3.1665,3.1664,3.167,3.171,3.1725,3.1729,3.1793,3.1741,3.1744,3.1746,3.1748,3.1908,3.191,0,0,0,0,0,0,3.1569,3.1578,3.1663,3.1666,3.1604,3.1641,3.1647,3.1668,3.1696,3.1698,3.1672,3.1669,3.1719,3.1725,3.1731,3.1802,3.1745,3.1748,3.175,3.1906,3.1909,3.1911,0,0,0,0,0,0,3.1567,3.1577,3.1661,3.1622,3.1632,3.1645,3.1669,3.167,3.1685,3.1701,3.1703,3.1684,3.1718,3.1726,3.1775,3.1804,3.175,3.1753,3.1904,3.1907,3.191,3.1945,0,0,0,0,0,0,3.1563,3.1576,3.1599,3.1623,3.1635,3.1704,3.1671,3.1673,3.1692,3.1689,3.1713,3.1716,3.1717,3.1769,3.1778,3.1808,3.1756,3.1901,3.1905,3.1909,3.1941,3.1949,3.1956,0,0,0,0,0,3.1559,3.1606,3.16,3.161,3.1663,3.1706,3.1713,3.1714,3.1694,3.1717,3.1727,3.1715,3.1799,3.1774,3.1784,3.1815,3.19,3.1904,3.1909,3.1938,3.1947,3.1955,0,0,0,0,0,0,3.1583,3.1608,3.1602,3.1658,3.168,3.1702,3.1731,3.1723,3.1751,3.1747,3.1747,3.1753,3.1803,3.1814,3.1786,3.1875,3.1846,3.1853,3.1865,3.1874,3.1881,3.1877,3.1759,0,0,0,0,0,3.1595,3.1628,3.1649,3.1695,3.1707,3.1717,3.1736,3.1735,3.1758,3.1767,3.1781,3.1803,3.1835,3.1855,3.1885,3.1943,3.1949,3.197,3.1977,3.1983,3.1988,3.2021,3.2031,3.1926,3.1926,3.1926,0,0,3.1619,3.1637,3.1658,3.1701,3.1718,3.1752,3.1725,3.1762,3.1788,3.1772,3.182,3.1831,3.1856,3.191,3.1935,3.1921,3.2019,3.1989,3.1993,3.1996,3.2027,3.2037,3.2046,3.1929,3.1929,3.1928,0,0,3.1681,3.1698,3.174,3.1758,3.1785,3.1792,3.1802,3.1826,3.1834,3.1881,3.1871,3.1902,3.1956,3.1974,3.1991,3.2063,3.2053,3.2073,3.2109,3.2141,3.215,3.2157,3.2183,3.2192,3.2079,3.2079,3.2079,0,3.1708,3.1759,3.1762,3.1801,3.182,3.181,3.1852,3.1869,3.1904,3.1918,3.1902,3.1972,3.1987,3.2046,3.2064,3.2078,3.209,3.2069,3.2148,3.2156,3.2163,3.2187,3.2197,3.2081,3.2081,3.208,3.208,0,3.1791,3.1827,3.1858,3.1893,3.1916,3.1956,3.1965,3.1988,3.1986,3.1995,3.2045,3.2064,3.2098,3.2112,3.211,3.2172,3.2163,3.2148,3.2119,3.2175,3.2198,3.2208,3.2084,3.2083,3.2083,3.2082,0,0,3.1867,3.1905,3.1916,3.1933,3.1963,3.1991,3.2032,3.2066,3.2086,3.2112,3.2146,3.2193,3.2181,3.2199,3.22,3.2228,3.2285,3.221,3.221,3.2223,3.2355,3.2365,3.2376,3.2279,3.2281,3.2282,3.2352,0,3.1931,3.2002,3.2007,3.2071,3.2105,3.2097,3.2133,3.2155,3.2165,3.2196,3.2206,3.224,3.2221,3.2232,3.226,3.2272,3.2311,3.2267,3.231,3.2312,3.2304,3.2388,3.2399,3.2464,3.2362,3.2363,3.2364,0,3.2015,3.2044,3.2113,3.214,3.2154,3.2186,3.2219,3.2248,3.2274,3.2279,3.2302,3.2299,3.2341,3.2312,3.237,3.234,3.2359,3.2368,3.237,3.2373,3.2341,3.2393,3.2485,3.2494,3.2379,3.2377,3.2376,0,3.2063,3.212,3.2169,3.2183,3.2216,3.2239,3.2253,3.2278,3.2299,3.2328,3.2342,3.2375,3.2394,3.242,3.2426,3.2404,3.2484,3.2456,3.249,3.249,3.2506,3.2504,3.2601,3.2519,3.2519,3.2519,3.2518,0,3.2134,3.2176,3.2191,3.2221,3.2268,3.2274,3.232,3.2334,3.2356,3.2388,3.2384,3.2414,3.2421,3.2453,3.2459,3.2506,3.2514,3.252,3.2521,3.252,3.2519,3.2531,3.2527,3.2521,3.2521,3.252,3.252,0,3.2196,3.2207,3.226,3.2288,3.2296,3.2329,3.2353,3.2382,3.2393,3.2434,3.2444,3.246,3.2497,3.2507,3.2552,3.2555,3.2612,3.2608,3.2603,3.2603,3.2636,3.2633,3.2743,3.2758,3.2667,3.2667,3.2668,0,3.2239,3.2272,3.2304,3.2326,3.2342,3.2377,3.2399,3.2407,3.243,3.2464,3.2489,3.2526,3.2556,3.2617,3.2633,3.2667,3.2664,3.2701,3.2669,3.2668,3.2665,3.2663,3.2666,3.2706,3.2707,3.2708,3.2709,0,3.2316,3.2321,3.2353,3.2389,3.2416,3.2444,3.2471,3.2489,3.25,3.2527,3.2566,3.259,3.2637,3.2674,3.2709,3.2724,3.2719,3.2719,3.2729,3.2728,3.2723,3.2726,3.2619,3.2716,3.2715,3.2715,3.2714,3.2714,3.237,3.2399,3.2427,3.2464,3.2485,3.2511,3.254,3.2555,3.2588,3.2627,3.263,3.2672,3.2699,3.2747,3.2764,3.2798,3.2787,3.28,3.2804,3.2807,3.281,3.2719,3.2804,3.2804,3.2804,3.2804,3.2804,0,3.2446,3.2464,3.2499,3.2537,3.2566,3.256,3.259,3.2615,3.2653,3.2679,3.271,3.2755,3.2792,3.2812,3.2849,3.2872,3.2871,3.2882,3.2879,3.2883,3.2818,3.2806,3.2882,3.2882,3.2882,3.2882,3.2882,3.2882,3.2489,3.2539,3.2547,3.2607,3.2625,3.2668,3.2685,3.2709,3.2731,3.2782,3.2813,3.2826,3.285,3.2889,3.2923,3.2928,3.2942,3.2954,3.2958,3.2896,3.2888,3.288,3.2869,3.2957,3.2957,3.302,3.3021,3.3021]},{"header":{"parameterUnit":"m.s-1","parameterCategory":1,"la1":30.2991,"la2":30.254,"lo1":-89.0895,"lo2":-89.0444,"dy":0.0017,"dx":0.0017,"nx":28,"ny":28,"refTime":"2025-11-09T03:00:00:Z","depth":0,"parameterNumber":3,"parameterNumberName":"V-component_of_WINDS"},"data":[0,0,0,0,0,0,0,0,0,0,0,0,0,0,0,0,0,0,0,0,0,0,0,0,0,0,0,0,0,0,0,0,0,0,0,0,0,0,0,0,0,0,0,0,0,0,0,0,0,0,0,0,0,0,0,0,0,0,-10.0261,-10.0263,0,-10.0452,-10.0455,-10.0457,-10.0364,-10.0359,-10.0355,-10.035,-10.0538,-10.0547,-10.0557,0,0,0,0,0,0,0,0,0,0,0,0,0,-9.9808,-9.9816,-10.026,-10.0263,-10.0265,-10.0452,-10.0455,-10.0457,-10.0365,-10.0359,-10.0353,-10.0348,-10.0535,-10.0546,-10.0558,0,0,0,0,0,0,0,0,0,0,0,0,0,-10.0002,-9.9819,-10.026,-10.0242,-10.0242,-10.0452,-10.0455,-10.0458,-10.0366,-10.0359,-10.0352,-10.0345,-10.0531,-10.0545,-10.0559,-10.0795,0,0,-10.0603,-10.0609,0,0,0,0,0,0,0,0,-9.9991,-10.0019,-10.0242,-10.0244,-10.0244,-10.0377,-10.0364,-10.0571,-10.0368,-10.0319,-10.035,-10.0341,-10.049,-10.0507,-10.0559,-10.0803,-10.0811,-10.0604,-10.0613,-10.0619,-10.0623,0,0,0,0,0,0,0,-9.9978,-10.001,-10.0336,-10.0246,-10.0247,-10.0222,-10.0242,-10.0403,-10.0443,-10.0323,-10.0317,-10.0341,-10.0489,-10.0545,-10.0563,-10.0814,-10.0604,-10.0617,-10.0625,-10.0631,-10.1262,-10.127,0,0,0,0,0,0,-9.9966,-10.0,-10.033,-10.0342,-10.0098,-10.0236,-10.0258,-10.0342,-10.0441,-10.0449,-10.0347,-10.0336,-10.0524,-10.0546,-10.0569,-10.0852,-10.0619,-10.0632,-10.0641,-10.1254,-10.1264,-10.1273,0,0,0,0,0,0,-9.9957,-9.9997,-10.0322,-10.0169,-10.0209,-10.0252,-10.0347,-10.0349,-10.0406,-10.046,-10.0465,-10.0398,-10.0519,-10.0549,-10.074,-10.0857,-10.0639,-10.0652,-10.1245,-10.1257,-10.1269,-10.142,0,0,0,0,0,0,-9.9944,-9.9994,-10.0085,-10.0172,-10.0218,-10.0493,-10.0354,-10.0359,-10.0432,-10.0419,-10.0509,-10.0516,-10.0516,-10.0719,-10.0754,-10.0873,-10.0663,-10.1234,-10.125,-10.1265,-10.1405,-10.1436,-10.1463,0,0,0,0,0,-9.9928,-10.0118,-10.009,-10.0131,-10.0333,-10.05,-10.0525,-10.0524,-10.0442,-10.0533,-10.0568,-10.0514,-10.0839,-10.074,-10.0778,-10.0903,-10.1227,-10.1246,-10.1264,-10.1392,-10.143,-10.1462,0,0,0,0,0,0,-10.004,-10.0129,-10.0099,-10.0323,-10.0405,-10.0484,-10.0599,-10.0564,-10.0668,-10.0652,-10.0642,-10.0663,-10.0862,-10.0901,-10.0789,-10.1137,-10.102,-10.1047,-10.1104,-10.1141,-10.1169,-10.1156,-10.0675,0,0,0,0,0,-10.0092,-10.0222,-10.0291,-10.0482,-10.0525,-10.0556,-10.0628,-10.062,-10.0703,-10.0736,-10.0785,-10.0866,-10.0986,-10.1065,-10.1179,-10.141,-10.1428,-10.1515,-10.1544,-10.1568,-10.1591,-10.1717,-10.1757,-10.1333,-10.1333,-10.1333,0,0,-10.0197,-10.0262,-10.0344,-10.0506,-10.0569,-10.0703,-10.0585,-10.0731,-10.0829,-10.0757,-10.0943,-10.0981,-10.107,-10.1283,-10.1379,-10.1322,-10.1712,-10.1591,-10.1609,-10.162,-10.174,-10.178,-10.1816,-10.1346,-10.1344,-10.1342,0,0,-10.0459,-10.0522,-10.0689,-10.0755,-10.0852,-10.0872,-10.0912,-10.0997,-10.1021,-10.1208,-10.1157,-10.1272,-10.148,-10.1546,-10.1607,-10.1897,-10.1851,-10.1934,-10.2085,-10.2208,-10.2242,-10.2271,-10.2375,-10.2412,-10.1957,-10.1958,-10.1958,0,-10.0578,-10.078,-10.0778,-10.0929,-10.1002,-10.0947,-10.1115,-10.1178,-10.1306,-10.1357,-10.1291,-10.1553,-10.1608,-10.1837,-10.1908,-10.1959,-10.2003,-10.1924,-10.2237,-10.2267,-10.2294,-10.2393,-10.2433,-10.1967,-10.1966,-10.1965,-10.1964,0,-10.0922,-10.1063,-10.1185,-10.1315,-10.1401,-10.156,-10.158,-10.1667,-10.1652,-10.1678,-10.1868,-10.1934,-10.2061,-10.2114,-10.2099,-10.2341,-10.2302,-10.2238,-10.212,-10.2344,-10.2437,-10.2475,-10.1981,-10.1977,-10.1974,-10.1972,0,0,-10.1258,-10.1387,-10.1432,-10.1491,-10.1596,-10.1704,-10.1859,-10.1987,-10.2062,-10.2153,-10.2283,-10.2461,-10.2403,-10.2472,-10.2464,-10.2572,-10.2799,-10.2494,-10.2496,-10.2549,-10.307,-10.3118,-10.3162,-10.2769,-10.2776,-10.2782,-10.3062,0,-10.1529,-10.1806,-10.1809,-10.2062,-10.2192,-10.2143,-10.2278,-10.2356,-10.2385,-10.2497,-10.2527,-10.2655,-10.2567,-10.2609,-10.2714,-10.2749,-10.2903,-10.2729,-10.2888,-10.2894,-10.2868,-10.3211,-10.3262,-10.3524,-10.3099,-10.3105,-10.3109,0,-10.1881,-10.1987,-10.2255,-10.2343,-10.2398,-10.252,-10.2638,-10.2747,-10.2834,-10.2847,-10.2926,-10.2902,-10.3059,-10.2938,-10.3153,-10.3035,-10.31,-10.3127,-10.3137,-10.3152,-10.3015,-10.3235,-10.3607,-10.3646,-10.3166,-10.3162,-10.3157,0,-10.2101,-10.231,-10.2498,-10.255,-10.2657,-10.2744,-10.2792,-10.2872,-10.2949,-10.3051,-10.3101,-10.3219,-10.3283,-10.3374,-10.3382,-10.3293,-10.36,-10.3478,-10.3614,-10.3614,-10.3681,-10.3677,-10.4069,-10.3723,-10.3722,-10.3721,-10.3721,0,-10.2402,-10.2568,-10.2599,-10.2715,-10.2899,-10.29,-10.3082,-10.3122,-10.3194,-10.3315,-10.3277,-10.3391,-10.3395,-10.3511,-10.3517,-10.3696,-10.3724,-10.3738,-10.3738,-10.3742,-10.3741,-10.3785,-10.3767,-10.3732,-10.3729,-10.3727,-10.3726,0,-10.2679,-10.2707,-10.2908,-10.2994,-10.302,-10.3152,-10.3224,-10.3333,-10.3359,-10.3513,-10.3549,-10.3588,-10.3723,-10.3741,-10.3896,-10.3901,-10.4116,-10.4096,-10.4088,-10.4085,-10.422,-10.4207,-10.4655,-10.4714,-10.4329,-10.4332,-10.4335,0,-10.287,-10.2997,-10.3098,-10.3179,-10.3232,-10.3361,-10.3441,-10.3447,-10.3531,-10.3641,-10.3737,-10.3869,-10.3975,-10.4192,-10.4233,-10.4352,-10.4335,-10.4484,-10.4352,-10.4353,-10.4338,-10.4331,-10.4344,-10.4509,-10.4513,-10.4517,-10.4519,0,-10.3207,-10.3215,-10.3332,-10.3456,-10.3553,-10.365,-10.374,-10.3807,-10.3825,-10.3921,-10.406,-10.4143,-10.4304,-10.4435,-10.4554,-10.46,-10.4563,-10.4561,-10.4598,-10.4604,-10.4595,-10.4602,-10.4158,-10.455,-10.4547,-10.4545,-10.4543,-10.4542,-10.3447,-10.3558,-10.3648,-10.378,-10.385,-10.3937,-10.4045,-10.4086,-10.4203,-10.4338,-10.4333,-10.4486,-10.457,-10.4726,-10.4781,-10.49,-10.485,-10.4905,-10.4919,-10.4933,-10.4947,-10.4576,-10.4921,-10.492,-10.4919,-10.4919,-10.4918,0,-10.3782,-10.3838,-10.396,-10.4091,-10.4195,-10.4155,-10.4253,-10.4343,-10.4479,-10.4562,-10.4669,-10.4829,-10.4956,-10.5009,-10.5133,-10.5218,-10.5204,-10.525,-10.5244,-10.5256,-10.4983,-10.4938,-10.526,-10.526,-10.526,-10.526,-10.5259,-10.5259,-10.3969,-10.4156,-10.4175,-10.4396,-10.4449,-10.4602,-10.4663,-10.4742,-10.4808,-10.499,-10.5098,-10.5132,-10.5203,-10.5332,-10.5447,-10.5459,-10.5506,-10.556,-10.5565,-10.5309,-10.5275,-10.5242,-10.52,-10.5571,-10.5571,-10.5827,-10.583,-10.5832]}]]